Location: Newark
(48.5178°N, 4.2361°E)
Time: 06:01:17
(UTC+00:00)

ISS - Pass Details

Date: 27 January 2021
Orbit: 417 x 422 km, 51.6° (Epoch: 05 March)

Event Time Altitude Azimuth Distance (km) Brightness Sun altitude
Rises 18:35:16 0° 281° (W) 2,374 1.4 -20.0°
Reaches altitude 10° 18:37:25 10° 287° (WNW) 1,509 0.0 -20.4°
Enters shadow 18:40:25 46° 344° (NNW) 578 -3.1 -20.9°
